Regional Weather Roundup
Issued by NWS Sioux Falls, SD

Home | Current Version | Previous Version | Text Only | Print | Product List | Glossary On
Versions: 1 2 3 4 5 6 7 8 9 10 11 12 13 14 15 16 17 18 19 20 21 22 23 24 25 26 27 28 29 30 31 32 33 34 35 36 37 38 39 40 41 42 43 44 45 46 47 48 49 50
000
ASUS43 KFSD 291110
RWRFSD

WEATHER ROUNDUP FOR SE SOUTH DAKOTA/SW MINNESOTA/NW IOWA
NATIONAL WEATHER SERVICE SIOUX FALLS SD
600 AM CDT SUN MAY 29 2016

NOTE: "FAIR" INDICATES FEW OR NO CLOUDS BELOW 12,000 FEET WITH NO
SIGNIFICANT WEATHER AND OR OBSTRUCTIONS TO VISIBILITY.


SDZ038>040-050-052>070-291200-
SOUTHEAST SOUTH DAKOTA

CITY           SKY/WX    TMP DP  RH WIND       PRES   REMARKS
BROOKINGS      CLEAR     57  55  93 W7        29.97R
CHAMBERLAIN    PTCLDY    55  55  99 W7        30.02R
HURON          CLEAR     51  50  96 NW6       29.97R
MADISON        FAIR      57  57 100 W10       29.98R
MITCHELL       CLEAR     58  57  97 W6        29.99R
SIOUX FALLS    CLOUDY    57  55  93 SW3       29.99R
WINNER         FAIR      56  49  77 W8        30.03R
YANKTON          N/A     55  52  88 CALM      29.99S VSB 1/2
$$

MNZ071-072-080-081-089-090-097-098-291200-
SOUTHWEST MINNESOTA

CITY           SKY/WX    TMP DP  RH WIND       PRES   REMARKS
FAIRMONT       MOCLDY    57  54  88 W9        29.94R
JACKSON        PTCLDY    59  54  82 W12       29.98R
LUVERNE        PTCLDY    55  54  94 W6        29.99R
MARSHALL       PTCLDY    58  56  93 W10       29.94R
MONTEVIDEO     CLOUDY    57  57 100 W5        29.93R
PIPESTONE      CLOUDY    55  55 100 W6        29.98R FOG
REDWOOD FALLS  PTCLDY    59  55  87 W9        29.92R
TRACY          CLEAR     59  56  91 W9        29.96R
WINDOM         CLEAR     57  55  94 CALM      29.96R
WORTHINGTON    CLOUDY    58  57  97 W10       29.98S
$$

IAZ001>003-012>014-020>022-031-032-NEZ013-014-SDZ071-291200-
NORTHWEST IOWA

CITY           SKY/WX    TMP DP  RH WIND       PRES   REMARKS
CHEROKEE       CLEAR     55  55 100 S3        30.01R FOG
DENISON        CLEAR     54  54 100 CALM      30.01R FOG
ESTHERVILLE    CLEAR     57  57 100 W9        29.96R
LE MARS        CLOUDY    57  57 100 SW3       30.02R
ORANGE CITY    PTCLDY    55  55 100 SW3       30.01R
SHELDON        CLOUDY    57  57 100 SW8       29.99R FOG
SIOUX CITY     CLOUDY    58  55  90 CALM      30.01R
SPENCER        CLEAR     57  55  93 W8        29.98R FOG
STORM LAKE     PTCLDY    55  55 100 SW9       30.02R FOG
$$

ABBREVIATIONS USED IN REMARKS
   TC - TEMPERATURE IN CELSIUS
  WCI - WIND CHILL INDEX
   HX - HEAT INDEX
  VSB - VISIBILITY





USA.gov is the U.S. government's official web portal to all federal, state and local government web resources and services.